Location: Unspecified
(50.1700°N, 6.8600°E)
Time: 20:57:55
(UTC+00:00)

N. Korean satellite - Visible Passes

Search period start: 18 September 2020 00:00
Search period end: 28 September 2020 00:00
Orbit: 455 x 503 km, 97.2° (Epoch: 17 September)

Date Brightness Start Highest point End Pass type
(mag) Time Alt. Az. Time Alt. Az. Time Alt. Az.
20 Sep 9.6 04:23:06 10° NE 04:26:01 21° E 04:28:53 10° SE visible
21 Sep 10.2 03:58:23 10° ENE 03:59:45 12° E 04:01:07 10° ESE visible
23 Sep 8.8 04:38:08 10° NNE 04:41:27 31° E 04:44:41 10° SSE visible
24 Sep 9.8 04:12:47 10° NE 04:15:14 17° E 04:17:39 10° SE visible
27 Sep 9.3 04:27:38 10° NE 04:30:39 24° E 04:33:37 10° SSE visible
